Location: Tyler Bend Campground
(35.9875°N, 92.7606°W)
Time: 00:03:45
(UTC-05:00)

CZ-2C R/B - Visible Passes

Search period start: 21 April 2015 00:00
Search period end: 01 May 2015 00:00
Orbit: 670 x 785 km, 98.1° (Epoch: 19 April)

Date Brightness Start Highest point End Pass type
(mag) Time Alt. Az. Time Alt. Az. Time Alt. Az.
22 Apr 4.9 20:51:17 10° SW 20:55:06 23° W 20:58:54 10° NW visible
24 Apr 5.0 20:54:13 10° SW 20:57:57 21° W 21:01:38 10° NW visible
26 Apr 5.0 20:57:11 10° SW 21:00:48 20° W 21:04:21 10° NW visible
28 Apr 5.1 21:00:09 10° SW 21:03:39 19° W 21:07:04 10° NW visible
30 Apr 5.1 21:03:08 10° SW 21:06:31 18° W 21:09:45 10° NW visible
